Tracking 19246 objects as of 20-Aug-2018
HD Live streaming from Space Station
objects crossing your sky now

ASAP-S

Track ASAP-S now!
10-day predictions
ASAP-S is classified as:


NORAD ID: 38013
Int'l Code: 2011-076G
Perigee: 579.5 km
Apogee: 592.3 km
Inclination: 98.0 °
Period: 96.2 minutes
Semi major axis: 6956 km
RCS: 2.764 m2 (large)
Launch date: December 17, 2011
Source: France (FR)
Launch site: FRENCH GUIANA (FRGUI)
aabbcc
Your satellite tracking list
Your tracking list is empty




NASA's NSSDC Master Catalog

Two Line Element Set (TLE):
1 38013U 11076G   18231.34297237 -.00000255 +00000-0 -17169-4 0  9994
2 38013 097.9993 001.2448 0009162 048.8207 311.3802 14.96166969363523
Source of the keplerian elements: AFSPC